Regional Weather Roundup
Issued by NWS

Home | Current Version | Previous Version | Graphics & Text | Print | Product List | Glossary On
Versions: 1 2 3 4 5 6 7 8 9 10 11 12 13 14 15 16 17 18 19 20 21 22 23 24 25 26 27 28 29 30 31 32 33 34 35 36 37 38 39 40 41 42 43 44 45 46 47 48 49 50
000
ASUS44 KMEG 301410
RWRTN
TENNESSEE HOURLY STATE WEATHER ROUNDUP
NATIONAL WEATHER SERVICE MEMPHIS TN
900 AM CDT SUN AUG 30 2015

TNZ002-004-019-021-049-052-054-088>092-301500-
WEST TENNESSEE

CITY           SKY/WX    TMP DP  RH WIND       PRES   REMARKS
MEMPHIS INTL   CLOUDY    75  66  73 E6        30.06R
NWS MEMPHIS      N/A     73 N/A N/A MISG        N/A
JACKSON        MOSUNNY   73  67  81 S5        30.09R
DYERSBURG      CLOUDY   N/A N/A N/A MISG        N/A
UNION CITY     MOSUNNY   73  73 100 SE9       30.07F
PARIS          SUNNY     72  66  83 S3        30.11R
LEXINGTON      SUNNY     72  66  83 VRB5      30.10R
$$

TNZ008-025-027-028-033-062-065-066-301500-
NORTH MIDDLE TENNESSEE

CITY           SKY/WX    TMP DP  RH WIND       PRES   REMARKS
NASHVILLE      CLOUDY    73  67  81 SE3       30.13S
CLARKSVILLE    MOSUNNY   74  66  76 W6        30.11S
SMYRNA         CLOUDY    74  70  87 CALM      30.14R
COOKEVILLE     SUNNY     73  68  83 CALM      30.15S
CROSSVILLE     CLOUDY    72  63  73 S3        30.20R
$$

TNZ061-075-076-078-094-096-097-301500-
SOUTH MIDDLE TENNESSEE

CITY           SKY/WX    TMP DP  RH WIND       PRES   REMARKS
FAYETTEVILLE   SUNNY     70  66  88 CALM      30.14R
TULLAHOMA      SUNNY     70  63  78 SE3       30.15S
WINCHESTER     SUNNY     70  66  88 E3        30.14F
MCMINNVILLE    SUNNY     72  72 100 E3        30.15S
COLUMBIA       SUNNY     73  73 100 CALM      30.11S
SHELBYVILLE    SUNNY     73  68  83 SE3       30.14S
$$

TNZ017-018-042-046-047-301500-
NORTHEAST TENNESSEE

CITY           SKY/WX    TMP DP  RH WIND       PRES   REMARKS
TRI CITIES     CLOUDY    69  64  84 CALM      30.20F
ELIZABETHTON   SUNNY     66  61  82 CALM      30.21S
$$

TNZ012-013-036-069-073-074-301500-
CENTRAL EAST TENNESSEE

CITY           SKY/WX    TMP DP  RH WIND       PRES   REMARKS
KNOXVILLE      CLOUDY    69  66  90 NW5       30.15S
OAK RIDGE      CLOUDY    73  66  78 CALM      30.18R
GATLINBURG     SUNNY     72  63  73 CALM      30.17R
MORRISTOWN     SUNNY     72  64  78 E5        30.20R
$$

TNZ083-085-099-301500-
SOUTHEAST TENNESSEE

CITY           SKY/WX    TMP DP  RH WIND       PRES   REMARKS
CHATTANOOGA    CLOUDY    73  68  84 NE5       30.15R
$$

SKY/WX REPORTED AS FAIR MEANS FEW OR NO CLOUDS BELOW
12 THOUSAND FEET.



USA.gov is the U.S. government's official web portal to all federal, state and local government web resources and services.